#timestamp,LO_Frequency,Hit,StdDev 
1622149215.0,286047000.3,P
1622149215.9,286047000.3,N
1622149235.8,286047000.0,N
1622149255.6,286046999.9,N
1622149275.4,286046999.9,N
1622149295.3,286046999.9,N
1622149315.1,286047002.3,N
1622149335.9,286047001.5,N
1622149355.7,286047002.2,N
1622149375.5,286047004.1,N
1622149395.4,286047004.2,N
1622149415.2,286047003.8,N
1622149435.0,286047003.7,N
1622149436.0,286047003.7,N
1622149455.8,286047001.3,N
1622149475.6,286047002.5,N
1622149495.5,286047001.8,N
1622149515.3,286047001.9,N
1622149535.1,286047002.0,N
1622149555.9,286047002.7,N
1622149575.7,286047002.1,N
1622149595.6,286047001.6,N
1622149615.4,286047002.4,N
1622149635.2,286047002.9,N
1622149655.1,286047003.4,N
1622149656.0,286047003.4,N
1622149675.8,286047003.6,N
1622149695.6,286047003.6,N
1622149715.5,286047004.0,N
1622149735.3,286047004.4,Y
1622149755.2,286047000.0,P
1622149775.9,286047000.3,N
1622149795.7,286047002.4,N
1622149815.6,286047002.4,N
1622149835.4,286047002.5,N
1622149855.2,286046999.8,N
1622149875.1,286047000.4,N
1622149876.0,286047000.4,N
1622149895.8,286047000.2,N
1622149915.7,286046998.2,N
1622149935.5,286046998.2,N
1622149955.3,286047001.2,N
1622149975.2,286046999.7,N
1622149995.0,286046998.1,N
1622149995.9,286046998.1,N
1622150015.7,286046999.4,N
1622150035.6,286047001.1,N
1622150055.4,286047002.3,N
1622150075.3,286047003.9,N
1622150095.1,286047004.4,N
1622150096.0,286047004.4,N
1622150115.8,286047002.6,N
1622150135.7,286047000.1,N
1622150155.5,286047002.0,N
1622150175.3,286047001.7,N
1622150195.2,286047002.3,N
1622150215.0,286047001.3,N
1622150215.9,286047001.3,N
1622150235.8,286047001.4,N
1622150255.6,286047004.6,N
1622150275.4,286047005.3,N
1622150295.3,286047003.5,N
1622150315.1,286047001.6,N
1622150335.9,286047001.8,N
1622150355.7,286047002.7,N
1622150375.5,286047004.4,N
1622150395.4,286047003.3,N
1622150415.2,286047005.8,N
1622150435.0,286047006.6,Y
1622150435.9,286047006.6,P
1622150455.8,286047004.1,N
1622150475.6,286047005.7,N
1622150495.5,286047004.9,N
1622150515.3,286047001.4,N
1622150535.1,286047004.4,N
1622150555.9,286047003.9,N
1622150575.7,286047005.7,Y
1622150595.6,286046999.8,P
1622150615.4,286046999.3,N
1622150635.2,286047000.8,N
1622150655.1,286046996.6,N
1622150656.0,286046996.6,N
1622150675.8,286046998.8,N
1622150695.6,286047000.6,N
1622150715.5,286047004.0,N
1622150735.3,286047005.2,N
1622150755.2,286047007.4,N
1622150775.9,286047007.1,N
1622150795.7,286047004.6,N
1622150815.6,286047006.0,N
1622150835.4,286047003.4,N
1622150855.2,286047005.4,N
1622150875.1,286047003.0,N
1622150876.0,286047003.0,N
1622150895.8,286047003.0,N
1622150915.7,286047003.4,N
1622150935.5,286047003.1,N
1622150955.3,286047004.3,N
1622150975.2,286047003.5,N
1622150995.0,286047004.1,N
1622150995.9,286047004.1,N
1622151015.8,286047004.3,N
1622151035.6,286047001.5,N
1622151055.4,286047006.4,N
1622151075.3,286047004.5,N
1622151095.1,286047005.4,N
1622151115.8,286047003.0,N
1622151135.7,286047003.3,N
1622151155.5,286047005.9,N
1622151175.4,286047003.4,N
1622151195.2,286047001.7,N
1622151215.0,286047004.4,N
1622151215.9,286047004.4,N
1622151235.8,286047005.4,Y
1622151255.6,286047001.2,P
1622151275.5,286047001.2,N
1622151295.3,286047000.3,N
1622151315.1,286047000.2,N
1622151335.9,286047000.0,N
1622151355.7,286047000.9,N
1622151375.5,286046998.7,N
1622151395.4,286046998.2,N
1622151415.2,286047000.3,N
1622151435.1,286047000.1,N
1622151436.0,286047000.1,N
1622151455.8,286047000.1,N
1622151475.6,286047002.8,N
1622151495.5,286046998.9,N
1622151515.3,286046998.7,N
1622151535.1,286046996.5,N
1622151555.9,286046998.8,N
1622151575.7,286047001.1,N
1622151595.6,286047001.1,N
1622151615.4,286047000.3,N
1622151635.2,286046998.5,N
1622151655.1,286046998.3,N
1622151656.0,286046998.3,N
1622151675.8,286047000.8,N
1622151695.7,286046998.3,N
1622151715.5,286046997.0,N
1622151735.3,286046997.3,N
1622151755.2,286046997.7,N
1622151775.9,286046996.7,N
1622151795.7,286047000.9,N
1622151815.6,286047000.6,N
1622151835.4,286046996.5,N
1622151855.3,286047000.7,N
1622151875.1,286047000.9,N
1622151876.0,286047000.9,N
1622151895.8,286047000.9,N
1622151915.7,286047000.1,N
1622151935.5,286047001.6,N
1622151955.3,286047002.5,N
1622151975.2,286047002.8,N
1622151995.0,286047000.3,N
1622151995.9,286047000.3,N
1622152015.8,286047000.8,N
1622152035.6,286047000.5,N
1622152055.4,286047000.7,N
1622152075.3,286047001.2,N
1622152095.1,286046998.8,N
1622152115.9,286046998.6,N
1622152165.7,286047002.7,E
1622152175.6,286046999.8,N
1622152195.5,286046999.7,P
1622152215.3,286047000.9,P
1622152235.1,286047001.7,Y
1622152255.9,286047002.0,P
1622152275.7,286047004.4,P
1622152295.6,286047002.6,N
1622152315.4,286047001.3,N
1622152335.2,286047006.0,Y
1622152355.1,286047002.1,P
1622152356.0,286047002.1,P
1622152375.8,286046999.7,P
1622152395.7,286047002.2,N
1622152415.5,286047001.9,N
1622152435.3,286047002.9,Y
1622152455.2,286047002.4,P
1622152475.0,286046999.9,N
1622152475.9,286046999.9,N
1622152495.8,286047000.3,N
1622152515.6,286047000.0,N
1622152535.4,286047001.2,N
1622152555.3,286046999.3,N
1622152575.1,286046996.8,Y
1622152595.8,286046997.0,P
1622152615.7,286046995.0,N
1622152635.5,286046995.4,N
1622152655.4,286046997.6,N
1622152675.2,286046997.5,N
1622152695.0,286046995.2,N
1622152695.9,286046995.2,N
1622152715.8,286046997.1,N
1622152735.6,286046999.7,N
1622152755.4,286047000.3,N
1622152775.3,286047000.7,N
1622152795.1,286046998.8,N
